User: anonymous   Login
Location: Nairn
(57.5833°N, 3.8667°W)
Time: 17:31:10
(UTC+00:00)
Language:

In-Cosmos 22 - Orbit

View from above orbital plane
View from above orbital plane
View from above satellite
View from above satellite

Ground track
Ground track

The orbit data is extracted from the following two-line orbital elements,

1 12645U 81075A   20298.18953166  .00000040  00000-0  13257-4 0  9995
2 12645  81.2157  89.0032 0063691   4.1940 355.9755 14.18380481 27993
Epoch (UTC): 24 October 2020 04:32:55
Eccentricity: 0.0063691
inclination: 81.2157°
perigee height: 785 km
apogee height: 877 km
right ascension of ascending node: 89.0032°
argument of perigee: 4.1940°
revolutions per day: 14.18380481
mean anomaly at epoch: 355.9755°
orbit number at epoch: 2799

The dashed part of the orbit path shows where the satellite is in the earth's shadow,  

DLR